Change the Weather History Date:

Wednesday, December 26, 2012

  Actual Average Record
Temperature  
Mean Temperature -5 °F -  
Max Temperature 8 °F 15 °F 42 °F (2003)
Min Temperature -18 °F 0 °F -25 °F (1996)
Degree Days  
Heating Degree Days 70    
Moisture  
Dew Point -9 °F    
Average Humidity 83    
Maximum Humidity 92    
Minimum Humidity 72    
Precipitation  
Precipitation 0.00 in - - ()
Sea Level Pressure  
Sea Level Pressure 30.29 in    
Wind  
Wind Speed 0 mph (North)    
Max Wind Speed 0 mph    
Max Gust Speed -    
Visibility 9 miles    
Events Snow    
Averages and records for this station are not official NWS values.
T = Trace of Precipitation, MM = Missing Value Source: NWS Daily Summary

Daily Weather History Graph

Daily Weather History Graph

Search for Another Location

Airport or City:

Trip Planner

Search our weather history database for the weather conditions in past years. The results will help you decide how hot, cold, wet, or windy it might be!

Date:

Astronomy

Dec. 26, 2012 Rise Set
Actual Time 7:59 AM CST 4:24 PM CST
Civil Twilight 7:22 AM CST 5:00 PM CST
Nautical Twilight 6:43 AM CST 5:39 PM CST
Astronomical Twilight 6:05 AM CST 6:17 PM CST
Moon 3:20 PM CST (12/26) 6:20 AM CST (12/26)
Length of Visible Light 9h 37m
Length of Day
8h 25m
Waxing Gibbous, 97% of the Moon is Illuminated
Dec 26
Waxing Gibbous
Dec 28
Full
Jan 4
Last Quarter
Jan 11
New
Jan 18
First Quarter

Hourly Weather History & Observations

Time (CST) Temp. Dew Point Humidity Pressure Visibility Wind Dir Wind Speed Gust Speed Precip Events Conditions
12:17 AM -18.4 °F -22.0 °F 84% 30.34 in 10.0 mi Calm Calm - N/A   Clear
12:37 AM -16.6 °F -22.0 °F 76% 30.34 in 10.0 mi Calm Calm - N/A   Clear
12:56 AM -16.6 °F -22.0 °F 76% 30.34 in 10.0 mi Calm Calm - N/A   Clear
1:17 AM -16.6 °F -20.2 °F 84% 30.34 in 10.0 mi Calm Calm - N/A   Clear
1:37 AM -16.6 °F -20.2 °F 84% 30.34 in 10.0 mi Calm Calm - N/A   Clear
1:56 AM -16.6 °F -20.2 °F 84% 30.34 in 10.0 mi Calm Calm - N/A   Clear
2:17 AM -16.6 °F -20.2 °F 84% 30.34 in 10.0 mi Calm Calm - N/A   Clear
2:37 AM -16.6 °F -20.2 °F 84% 30.34 in 10.0 mi Calm Calm - N/A   Clear
2:56 AM -16.6 °F -22.0 °F 76% 30.35 in 10.0 mi Calm Calm - N/A   Clear
3:17 AM -16.6 °F -20.2 °F 84% 30.34 in 10.0 mi Calm Calm - N/A   Clear
3:36 AM -16.6 °F -20.2 °F 84% 30.34 in 10.0 mi Calm Calm - N/A   Clear
3:57 AM -16.6 °F -20.2 °F 84% 30.34 in 10.0 mi Calm Calm - N/A   Clear
4:17 AM -14.8 °F -18.4 °F 84% 30.33 in 10.0 mi Calm Calm - N/A   Clear
4:36 AM -13.0 °F -18.4 °F 77% 30.33 in 10.0 mi Calm Calm - N/A   Clear
5:17 AM -11.2 °F -14.8 °F 84% 30.32 in 10.0 mi Calm Calm - N/A   Clear
5:36 AM -9.4 °F -14.8 °F 77% 30.33 in 10.0 mi Calm Calm - N/A   Clear
5:57 AM -9.4 °F -14.8 °F 77% 30.31 in 10.0 mi Calm Calm - N/A   Clear
6:17 AM -9.4 °F -14.8 °F 77% 30.32 in 10.0 mi Calm Calm - N/A   Clear
6:36 AM -9.4 °F -14.8 °F 77% 30.32 in 10.0 mi Calm Calm - N/A   Clear
6:57 AM -9.4 °F -14.8 °F 77% 30.33 in 10.0 mi Calm Calm - N/A   Scattered Clouds
7:17 AM -9.4 °F -14.8 °F 77% 30.33 in 10.0 mi Calm Calm - N/A   Scattered Clouds
7:36 AM -9.4 °F -14.8 °F 77% 30.33 in 10.0 mi Calm Calm - N/A   Clear
7:57 AM -9.4 °F -13.0 °F 84% 30.32 in 10.0 mi Calm Calm - N/A   Scattered Clouds
8:17 AM -9.4 °F -13.0 °F 84% 30.32 in 10.0 mi Calm Calm - N/A   Clear
8:36 AM -7.6 °F -11.2 °F 84% 30.33 in 10.0 mi Calm Calm - N/A   Clear
8:57 AM -7.6 °F -11.2 °F 84% 30.32 in 10.0 mi Calm Calm - N/A   Clear
9:17 AM -7.6 °F -11.2 °F 84% 30.32 in 10.0 mi Calm Calm - N/A   Clear
9:36 AM -7.6 °F -9.4 °F 92% 30.32 in 10.0 mi Calm Calm - N/A   Clear
9:56 AM -5.8 °F -9.4 °F 84% 30.32 in 10.0 mi Calm Calm - N/A   Clear
10:17 AM -2.2 °F -7.6 °F 78% 30.31 in 10.0 mi Calm Calm - N/A   Clear
10:36 AM -2.2 °F -5.8 °F 85% 30.30 in 10.0 mi Calm Calm - N/A   Clear
10:56 AM -0.4 °F -5.8 °F 78% 30.30 in 10.0 mi Calm Calm - N/A   Clear
11:17 AM -0.4 °F -4.0 °F 85% 30.29 in 10.0 mi Calm Calm - N/A   Clear
11:36 AM 1.4 °F -4.0 °F 78% 30.28 in 10.0 mi Calm Calm - N/A   Clear
11:56 AM 1.4 °F -2.2 °F 85% 30.28 in 10.0 mi Calm Calm - N/A   Clear
12:17 PM 1.4 °F -2.2 °F 85% 30.27 in 10.0 mi Calm Calm - N/A   Clear
12:36 PM 3.2 °F -2.2 °F 78% 30.27 in 10.0 mi Calm Calm - N/A   Clear
12:56 PM 3.2 °F -0.4 °F 85% 30.26 in 10.0 mi Calm Calm - N/A   Clear
1:16 PM 5.0 °F -0.4 °F 78% 30.26 in 10.0 mi Calm Calm - N/A   Clear
1:36 PM 6.8 °F -0.4 °F 72% 30.26 in 10.0 mi Calm Calm - N/A   Clear
1:56 PM 6.8 °F 1.4 °F 79% 30.26 in 10.0 mi Calm Calm - N/A   Scattered Clouds
2:17 PM 6.8 °F 1.4 °F 79% 30.26 in 5.0 mi Calm Calm - N/A Snow Light Snow
2:37 PM 6.8 °F 1.4 °F 79% 30.26 in 2.5 mi Calm Calm - N/A Snow Light Snow
2:56 PM 6.8 °F 3.2 °F 85% 30.26 in 3.0 mi Calm Calm - N/A Snow Light Snow
3:17 PM 8.6 °F 3.2 °F 79% 30.26 in 3.0 mi Calm Calm - N/A Snow Light Snow
3:36 PM 8.6 °F 3.2 °F 79% 30.27 in 3.0 mi Calm Calm - N/A Snow Light Snow
3:57 PM 6.8 °F 3.2 °F 85% 30.26 in 4.0 mi Calm Calm - N/A Snow Light Snow
4:17 PM 6.8 °F 3.2 °F 85% 30.26 in 10.0 mi Calm Calm - N/A   Overcast
4:36 PM 6.8 °F 3.2 °F 85% 30.26 in 2.0 mi Calm Calm - N/A Snow Light Snow
4:57 PM 6.8 °F 3.2 °F 85% 30.26 in 7.0 mi Calm Calm - N/A Snow Light Snow
5:17 PM 5.0 °F 1.4 °F 85% 30.26 in 10.0 mi Calm Calm - N/A   Mostly Cloudy
5:36 PM 3.2 °F 1.4 °F 92% 30.26 in 10.0 mi Calm Calm - N/A   Scattered Clouds
5:57 PM 3.2 °F 1.4 °F 92% 30.25 in 10.0 mi Calm Calm - N/A   Clear
6:17 PM -0.4 °F -2.2 °F 92% 30.25 in 10.0 mi Calm Calm - N/A   Clear
6:36 PM -0.4 °F -2.2 °F 92% 30.25 in 10.0 mi Calm Calm - N/A   Clear
7:16 PM -2.2 °F -5.8 °F 85% 30.25 in 10.0 mi Calm Calm - N/A   Clear
7:37 PM -4.0 °F -7.6 °F 85% 30.26 in 10.0 mi Calm Calm - N/A   Clear
7:56 PM -5.8 °F -9.4 °F 84% 30.25 in 10.0 mi Calm Calm - N/A   Clear
8:16 PM -5.8 °F -9.4 °F 84% 30.25 in 10.0 mi Calm Calm - N/A   Clear
8:36 PM -5.8 °F -9.4 °F 84% 30.25 in 10.0 mi Calm Calm - N/A   Clear
8:57 PM -7.6 °F -11.2 °F 84% 30.25 in 10.0 mi Calm Calm - N/A   Clear
9:17 PM -7.6 °F -11.2 °F 84% 30.26 in 10.0 mi Calm Calm - N/A   Scattered Clouds
9:36 PM -7.6 °F -11.2 °F 84% 30.25 in 10.0 mi Calm Calm - N/A   Mostly Cloudy
9:57 PM -7.6 °F -11.2 °F 84% 30.25 in 10.0 mi Calm Calm - N/A   Overcast
10:17 PM -7.6 °F -11.2 °F 84% 30.25 in 10.0 mi Calm Calm - N/A   Overcast
10:36 PM -7.6 °F -11.2 °F 84% 30.25 in 10.0 mi Calm Calm - N/A   Overcast
10:57 PM -7.6 °F -9.4 °F 92% 30.25 in 10.0 mi Calm Calm - N/A   Overcast
11:17 PM -5.8 °F -9.4 °F 84% 30.24 in 10.0 mi Calm Calm - N/A   Overcast
11:36 PM -7.6 °F -9.4 °F 92% 30.24 in 10.0 mi Calm Calm - N/A   Overcast
11:57 PM -5.8 °F -9.4 °F 84% 30.24 in 10.0 mi Calm Calm - N/A   Overcast